Time,TemperatureF,DewpointF,PressureIn,WindDirection,WindDirectionDegrees,WindSpeedMPH,WindSpeedGustMPH,Humidity,HourlyPrecipIn,Conditions,Clouds,dailyrainin,SoftwareType,DateUTC
2013-07-24 00:00:00,77.2,71.2,29.68,WNW,291,2.0,4.0,82,0.00,,,0.35,meteohub,2013-07-24 04:00:00,
2013-07-24 00:01:00,77.2,71.2,29.68,WNW,292,2.0,4.0,82,0.00,,,0.35,meteohub,2013-07-24 04:01:00,
2013-07-24 00:02:00,77.2,71.2,29.68,WNW,287,1.0,4.0,82,0.00,,,0.35,meteohub,2013-07-24 04:02:00,
2013-07-24 00:07:00,77.0,71.1,29.68,WNW,285,0.0,4.0,82,0.00,,,0.00,meteohub,2013-07-24 04:07:00,
2013-07-24 00:12:00,76.8,70.9,29.68,WNW,301,1.0,4.0,82,0.00,,,0.00,meteohub,2013-07-24 04:12:00,
2013-07-24 00:17:00,76.8,71.2,29.68,WNW,291,0.0,3.0,83,0.00,,,0.00,meteohub,2013-07-24 04:17:00,
2013-07-24 00:22:00,76.6,71.1,29.68,WNW,291,2.0,2.0,83,0.00,,,0.00,meteohub,2013-07-24 04:22:00,
2013-07-24 00:27:00,76.6,71.1,29.68,WNW,290,2.0,4.0,83,0.00,,,0.00,meteohub,2013-07-24 04:27:00,
2013-07-24 00:32:00,76.5,70.9,29.69,WNW,291,3.0,4.0,83,0.00,,,0.00,meteohub,2013-07-24 04:32:00,
2013-07-24 00:37:00,76.3,71.1,29.69,WNW,294,0.0,4.0,84,0.00,,,0.00,meteohub,2013-07-24 04:37:00,
2013-07-24 00:42:00,76.1,70.9,29.68,WNW,295,2.0,4.0,84,0.00,,,0.00,meteohub,2013-07-24 04:42:00,
2013-07-24 00:47:00,75.9,70.7,29.68,WNW,295,2.0,4.0,84,0.00,,,0.00,meteohub,2013-07-24 04:47:00,
2013-07-24 00:52:00,75.9,71.1,29.68,NW,307,0.0,6.0,85,0.00,,,0.00,meteohub,2013-07-24 04:52:00,
2013-07-24 00:57:00,75.7,70.9,29.68,West,277,1.0,6.0,85,0.00,,,0.00,meteohub,2013-07-24 04:57:00,
2013-07-24 01:02:00,75.7,70.9,29.68,NW,308,1.0,6.0,85,0.00,,,0.00,meteohub,2013-07-24 05:02:00,
2013-07-24 01:07:00,75.7,70.9,29.68,WNW,285,0.0,4.0,85,0.00,,,0.00,meteohub,2013-07-24 05:07:00,
2013-07-24 01:12:00,75.6,70.7,29.68,WNW,303,1.0,4.0,85,0.00,,,0.00,meteohub,2013-07-24 05:12:00,
2013-07-24 01:17:00,75.6,71.1,29.68,WNW,295,1.0,4.0,86,0.00,,,0.00,meteohub,2013-07-24 05:17:00,
2013-07-24 01:22:00,75.6,71.1,29.69,WNW,289,1.0,3.0,86,0.00,,,0.00,meteohub,2013-07-24 05:22:00,
2013-07-24 01:27:00,75.4,70.9,29.68,West,281,1.0,4.0,86,0.00,,,0.00,meteohub,2013-07-24 05:27:00,
2013-07-24 01:32:00,75.4,70.9,29.68,WNW,291,0.0,4.0,86,0.00,,,0.00,meteohub,2013-07-24 05:32:00,
2013-07-24 01:37:00,75.4,71.2,29.68,West,278,1.0,4.0,87,0.00,,,0.00,meteohub,2013-07-24 05:37:00,
2013-07-24 01:42:00,75.2,71.1,29.68,West,281,0.0,3.0,87,0.00,,,0.00,meteohub,2013-07-24 05:42:00,
2013-07-24 01:47:00,75.0,70.9,29.68,West,281,0.0,3.0,87,0.00,,,0.00,meteohub,2013-07-24 05:47:00,
2013-07-24 01:52:00,75.0,70.9,29.68,West,279,1.0,2.0,87,0.00,,,0.00,meteohub,2013-07-24 05:52:00,
2013-07-24 01:57:00,74.8,70.7,29.68,WNW,283,1.0,3.0,87,0.00,,,0.00,meteohub,2013-07-24 05:57:00,
2013-07-24 02:02:00,74.8,70.7,29.68,WNW,292,0.0,3.0,87,0.00,,,0.00,meteohub,2013-07-24 06:02:00,
2013-07-24 02:07:00,74.8,70.7,29.68,West,271,0.0,3.0,87,0.00,,,0.00,meteohub,2013-07-24 06:07:00,
2013-07-24 02:12:00,74.8,70.7,29.68,WNW,300,1.0,4.0,87,0.00,,,0.00,meteohub,2013-07-24 06:12:00,
2013-07-24 02:17:00,74.8,70.7,29.68,WNW,293,3.0,6.0,87,0.00,,,0.00,meteohub,2013-07-24 06:17:00,
2013-07-24 02:22:00,74.8,70.7,29.68,WNW,291,4.0,6.0,87,0.00,,,0.00,meteohub,2013-07-24 06:22:00,
2013-07-24 02:27:00,74.8,70.7,29.68,WNW,294,0.0,6.0,87,0.00,,,0.00,meteohub,2013-07-24 06:27:00,
2013-07-24 02:32:00,74.8,70.7,29.68,WNW,300,0.0,5.0,87,0.00,,,0.00,meteohub,2013-07-24 06:32:00,
2013-07-24 02:37:00,74.7,70.9,29.68,West,279,0.0,5.0,88,0.00,,,0.00,meteohub,2013-07-24 06:37:00,
2013-07-24 02:42:00,74.7,70.9,29.67,WNW,283,0.0,3.0,88,0.00,,,0.00,meteohub,2013-07-24 06:42:00,
2013-07-24 02:47:00,74.5,70.7,29.67,WNW,287,1.0,2.0,88,0.00,,,0.00,meteohub,2013-07-24 06:47:00,
2013-07-24 02:52:00,74.5,70.7,29.67,West,280,1.0,2.0,88,0.00,,,0.00,meteohub,2013-07-24 06:52:00,
2013-07-24 02:57:00,74.3,70.5,29.67,West,267,0.0,2.0,88,0.00,,,0.00,meteohub,2013-07-24 06:57:00,
2013-07-24 03:02:00,74.1,70.7,29.67,WNW,283,1.0,2.0,89,0.00,,,0.00,meteohub,2013-07-24 07:02:00,
2013-07-24 03:07:00,74.1,70.7,29.67,WNW,285,0.0,2.0,89,0.00,,,0.00,meteohub,2013-07-24 07:07:00,
2013-07-24 03:12:00,73.9,70.5,29.67,West,263,1.0,1.0,89,0.00,,,0.00,meteohub,2013-07-24 07:12:00,
2013-07-24 03:17:00,73.9,70.5,29.67,West,270,0.0,1.0,89,0.00,,,0.00,meteohub,2013-07-24 07:17:00,
2013-07-24 03:22:00,73.8,70.3,29.67,WSW,257,0.0,1.0,89,0.00,,,0.00,meteohub,2013-07-24 07:22:00,
2013-07-24 03:27:00,73.6,70.2,29.67,West,259,0.0,1.0,89,0.00,,,0.00,meteohub,2013-07-24 07:27:00,
2013-07-24 03:32:00,73.6,70.5,29.67,WNW,283,0.0,1.0,90,0.00,,,0.00,meteohub,2013-07-24 07:32:00,
2013-07-24 03:37:00,73.4,70.3,29.67,WNW,283,0.0,2.0,90,0.00,,,0.00,meteohub,2013-07-24 07:37:00,
2013-07-24 03:42:00,73.2,70.2,29.67,WNW,283,0.0,2.0,90,0.00,,,0.00,meteohub,2013-07-24 07:42:00,
2013-07-24 03:47:00,73.0,70.0,29.67,NW,305,0.0,2.0,90,0.00,,,0.00,meteohub,2013-07-24 07:47:00,
2013-07-24 03:52:00,73.0,70.0,29.67,NW,305,0.0,1.0,90,0.00,,,0.00,meteohub,2013-07-24 07:52:00,
2013-07-24 03:57:00,73.0,70.0,29.67,NW,305,0.0,1.0,90,0.00,,,0.00,meteohub,2013-07-24 07:57:00,
2013-07-24 04:02:00,73.0,70.0,29.66,WNW,302,0.0,4.0,90,0.00,,,0.00,meteohub,2013-07-24 08:02:00,
2013-07-24 04:08:00,73.0,69.6,29.67,WNW,300,2.0,4.0,89,0.00,,,0.00,meteohub,2013-07-24 08:08:00,
2013-07-24 04:13:00,73.0,69.6,29.67,WNW,301,1.0,4.0,89,0.00,,,0.00,meteohub,2013-07-24 08:13:00,
2013-07-24 04:18:00,73.0,69.3,29.66,WNW,283,1.0,4.0,88,0.00,,,0.00,meteohub,2013-07-24 08:18:00,
2013-07-24 04:23:00,73.0,69.3,29.66,WNW,291,3.0,4.0,88,0.00,,,0.00,meteohub,2013-07-24 08:23:00,
2013-07-24 04:28:00,73.2,69.1,29.67,WNW,297,3.0,4.0,87,0.00,,,0.00,meteohub,2013-07-24 08:28:00,
2013-07-24 04:33:00,73.2,68.7,29.66,WNW,288,2.0,5.0,86,0.00,,,0.00,meteohub,2013-07-24 08:33:00,
2013-07-24 04:38:00,73.2,68.7,29.67,WNW,293,2.0,5.0,86,0.00,,,0.00,meteohub,2013-07-24 08:38:00,
2013-07-24 04:43:00,73.2,68.7,29.67,WNW,285,1.0,6.0,86,0.00,,,0.00,meteohub,2013-07-24 08:43:00,
2013-07-24 04:48:00,73.2,68.7,29.67,West,278,2.0,6.0,86,0.00,,,0.00,meteohub,2013-07-24 08:48:00,
2013-07-24 04:53:00,73.2,68.7,29.66,WNW,291,1.0,6.0,86,0.00,,,0.00,meteohub,2013-07-24 08:53:00,
2013-07-24 04:58:00,73.0,68.5,29.66,WNW,298,3.0,5.0,86,0.00,,,0.00,meteohub,2013-07-24 08:58:00,
2013-07-24 05:03:00,73.0,68.5,29.66,West,274,2.0,5.0,86,0.00,,,0.00,meteohub,2013-07-24 09:03:00,
2013-07-24 05:08:00,72.9,68.4,29.67,WNW,300,2.0,5.0,86,0.00,,,0.00,meteohub,2013-07-24 09:08:00,
2013-07-24 05:13:00,72.9,68.4,29.67,WNW,291,2.0,5.0,86,0.00,,,0.00,meteohub,2013-07-24 09:13:00,
2013-07-24 05:18:00,72.9,68.4,29.67,WNW,291,1.0,5.0,86,0.00,,,0.00,meteohub,2013-07-24 09:18:00,
2013-07-24 05:23:00,72.7,68.2,29.68,WNW,288,2.0,5.0,86,0.00,,,0.00,meteohub,2013-07-24 09:23:00,
2013-07-24 05:28:00,72.7,68.2,29.68,West,271,3.0,5.0,86,0.00,,,0.00,meteohub,2013-07-24 09:28:00,
2013-07-24 05:33:00,72.7,68.2,29.69,WNW,290,5.0,6.0,86,0.00,,,0.00,meteohub,2013-07-24 09:33:00,
2013-07-24 05:38:00,72.9,68.0,29.68,NW,309,2.0,7.0,85,0.00,,,0.00,meteohub,2013-07-24 09:38:00,
2013-07-24 05:43:00,72.7,67.8,29.68,WNW,302,1.0,7.0,85,0.00,,,0.00,meteohub,2013-07-24 09:43:00,
2013-07-24 05:48:00,72.7,67.8,29.68,West,279,0.0,7.0,85,0.00,,,0.00,meteohub,2013-07-24 09:48:00,
2013-07-24 05:53:00,72.5,68.0,29.69,West,271,1.0,5.0,86,0.00,,,0.00,meteohub,2013-07-24 09:53:00,
2013-07-24 05:58:00,72.5,68.0,29.69,WNW,295,1.0,5.0,86,0.00,,,0.00,meteohub,2013-07-24 09:58:00,
2013-07-24 06:03:00,72.3,67.8,29.69,WNW,291,2.0,5.0,86,0.00,,,0.00,meteohub,2013-07-24 10:03:00,
2013-07-24 06:08:00,72.3,67.8,29.70,West,277,3.0,4.0,86,0.00,,,0.00,meteohub,2013-07-24 10:08:00,
2013-07-24 06:13:00,72.3,67.8,29.70,WNW,300,2.0,6.0,86,0.00,,,0.00,meteohub,2013-07-24 10:13:00,
2013-07-24 06:18:00,72.1,67.6,29.70,WNW,300,1.0,6.0,86,0.00,,,0.00,meteohub,2013-07-24 10:18:00,
2013-07-24 06:23:00,72.1,67.6,29.70,WNW,294,2.0,6.0,86,0.00,,,0.00,meteohub,2013-07-24 10:23:00,
2013-07-24 06:29:00,72.1,67.6,29.70,WNW,297,1.0,4.0,86,0.00,,,0.00,meteohub,2013-07-24 10:29:00,
2013-07-24 06:34:00,72.1,67.6,29.70,NW,315,1.0,4.0,86,0.00,,,0.00,meteohub,2013-07-24 10:34:00,
2013-07-24 06:39:00,72.1,67.6,29.70,West,279,4.0,6.0,86,0.00,,,0.00,meteohub,2013-07-24 10:39:00,
2013-07-24 06:44:00,72.1,67.6,29.70,WNW,288,0.0,7.0,86,0.00,,,0.00,meteohub,2013-07-24 10:44:00,
2013-07-24 06:49:00,72.1,67.6,29.70,WNW,293,1.0,7.0,86,0.00,,,0.00,meteohub,2013-07-24 10:49:00,
2013-07-24 06:54:00,72.1,67.6,29.70,WNW,285,0.0,7.0,86,0.00,,,0.00,meteohub,2013-07-24 10:54:00,
2013-07-24 06:59:00,72.3,67.8,29.70,WNW,291,1.0,4.0,86,0.00,,,0.00,meteohub,2013-07-24 10:59:00,
2013-07-24 07:04:00,72.5,67.8,29.70,WNW,301,3.0,4.0,85,0.00,,,0.00,meteohub,2013-07-24 11:04:00,
2013-07-24 07:09:00,72.7,67.8,29.70,NW,314,0.0,7.0,85,0.00,,,0.00,meteohub,2013-07-24 11:09:00,
2013-07-24 07:14:00,72.9,68.0,29.71,WNW,301,0.0,7.0,85,0.00,,,0.00,meteohub,2013-07-24 11:14:00,
2013-07-24 07:19:00,73.0,68.0,29.71,WNW,294,3.0,7.0,84,0.00,,,0.00,meteohub,2013-07-24 11:19:00,
2013-07-24 07:24:00,73.2,68.2,29.72,NW,307,2.0,5.0,84,0.00,,,0.00,meteohub,2013-07-24 11:24:00,
2013-07-24 07:29:00,73.4,68.2,29.72,NW,317,0.0,5.0,84,0.00,,,0.00,meteohub,2013-07-24 11:29:00,
2013-07-24 07:34:00,73.8,68.4,29.72,NW,309,1.0,5.0,83,0.00,,,0.00,meteohub,2013-07-24 11:34:00,
2013-07-24 07:39:00,73.9,68.2,29.73,NW,317,3.0,6.0,82,0.00,,,0.00,meteohub,2013-07-24 11:39:00,
2013-07-24 07:44:00,74.1,68.0,29.73,NW,311,4.0,9.0,81,0.00,,,0.00,meteohub,2013-07-24 11:44:00,
2013-07-24 07:49:00,74.7,68.4,29.73,WNW,288,3.0,9.0,81,0.00,,,0.00,meteohub,2013-07-24 11:49:00,
2013-07-24 07:54:00,74.7,68.0,29.73,WNW,284,6.0,9.0,80,0.00,,,0.00,meteohub,2013-07-24 11:54:00,
2013-07-24 07:59:00,74.8,68.2,29.73,NW,311,3.0,9.0,80,0.00,,,0.00,meteohub,2013-07-24 11:59:00,
2013-07-24 08:04:00,75.0,68.0,29.73,West,278,5.0,7.0,79,0.00,,,0.00,meteohub,2013-07-24 12:04:00,
2013-07-24 08:09:00,75.0,68.0,29.73,NNW,333,0.0,7.0,79,0.00,,,0.00,meteohub,2013-07-24 12:09:00,
2013-07-24 08:14:00,75.2,68.2,29.73,WSW,249,3.0,6.0,79,0.00,,,0.00,meteohub,2013-07-24 12:14:00,
2013-07-24 08:19:00,75.4,68.4,29.74,NW,312,1.0,6.0,79,0.00,,,0.00,meteohub,2013-07-24 12:19:00,
2013-07-24 08:24:00,75.6,68.2,29.74,NW,317,1.0,6.0,78,0.00,,,0.00,meteohub,2013-07-24 12:24:00,
2013-07-24 08:29:00,75.7,68.4,29.74,WNW,302,3.0,6.0,78,0.00,,,0.00,meteohub,2013-07-24 12:29:00,
2013-07-24 08:34:00,75.9,68.2,29.74,NW,307,4.0,6.0,77,0.00,,,0.00,meteohub,2013-07-24 12:34:00,
2013-07-24 08:39:00,76.1,68.4,29.74,NNW,328,2.0,7.0,77,0.00,,,0.00,meteohub,2013-07-24 12:39:00,
2013-07-24 08:44:00,76.5,68.7,29.74,NW,315,2.0,7.0,77,0.00,,,0.00,meteohub,2013-07-24 12:44:00,
2013-07-24 08:49:00,76.8,68.7,29.74,NW,316,2.0,7.0,76,0.00,,,0.00,meteohub,2013-07-24 12:49:00,
2013-07-24 08:54:00,76.8,68.4,29.75,WSW,255,3.0,8.0,75,0.00,,,0.00,meteohub,2013-07-24 12:54:00,
2013-07-24 08:59:00,77.2,69.1,29.75,NNW,333,1.0,9.0,76,0.00,,,0.00,meteohub,2013-07-24 12:59:00,
2013-07-24 09:04:00,76.8,68.7,29.75,North,349,1.0,9.0,76,0.00,,,0.00,meteohub,2013-07-24 13:04:00,
2013-07-24 09:09:00,76.8,68.7,29.75,North,349,1.0,9.0,76,0.00,,,0.00,meteohub,2013-07-24 13:09:00,
2013-07-24 09:14:00,76.6,68.2,29.75,WNW,288,2.0,7.0,75,0.00,,,0.00,meteohub,2013-07-24 13:14:00,
2013-07-24 09:19:00,76.8,68.4,29.75,WSW,255,3.0,9.0,75,0.00,,,0.00,meteohub,2013-07-24 13:19:00,
2013-07-24 09:24:00,77.0,68.5,29.75,WNW,300,1.0,9.0,75,0.00,,,0.00,meteohub,2013-07-24 13:24:00,
2013-07-24 09:29:00,77.4,68.9,29.76,WNW,301,2.0,9.0,75,0.00,,,0.00,meteohub,2013-07-24 13:29:00,
2013-07-24 09:34:00,77.7,68.7,29.75,WNW,290,1.0,8.0,74,0.00,,,0.00,meteohub,2013-07-24 13:34:00,
2013-07-24 09:39:00,77.7,68.4,29.76,NW,305,5.0,8.0,73,0.00,,,0.00,meteohub,2013-07-24 13:39:00,
2013-07-24 09:44:00,77.9,68.5,29.76,West,269,6.0,8.0,73,0.00,,,0.00,meteohub,2013-07-24 13:44:00,
2013-07-24 09:49:00,78.1,68.7,29.76,NW,322,2.0,8.0,73,0.00,,,0.00,meteohub,2013-07-24 13:49:00,
2013-07-24 09:54:00,78.1,68.7,29.76,NW,312,1.0,8.0,73,0.00,,,0.00,meteohub,2013-07-24 13:54:00,
2013-07-24 09:59:00,78.3,69.3,29.76,NNE,33,2.0,8.0,74,0.00,,,0.00,meteohub,2013-07-24 13:59:00,
2013-07-24 10:04:00,78.4,68.2,29.76,WSW,256,5.0,7.0,71,0.00,,,0.00,meteohub,2013-07-24 14:04:00,
2013-07-24 10:09:00,78.4,68.7,29.77,WNW,298,3.0,6.0,72,0.00,,,0.00,meteohub,2013-07-24 14:09:00,
2013-07-24 10:14:00,78.6,68.9,29.76,NW,304,2.0,6.0,72,0.00,,,0.00,meteohub,2013-07-24 14:14:00,
2013-07-24 10:19:00,79.0,69.3,29.76,WNW,287,1.0,6.0,72,0.00,,,0.00,meteohub,2013-07-24 14:19:00,
2013-07-24 10:24:00,79.0,68.7,29.77,West,276,0.0,4.0,71,0.00,,,0.00,meteohub,2013-07-24 14:24:00,
2013-07-24 10:29:00,79.3,69.1,29.77,WNW,298,1.0,4.0,71,0.00,,,0.00,meteohub,2013-07-24 14:29:00,
2013-07-24 10:34:00,79.9,69.3,29.77,NW,315,2.0,4.0,70,0.00,,,0.00,meteohub,2013-07-24 14:34:00,
2013-07-24 10:39:00,79.9,68.7,29.77,WNW,290,1.0,4.0,69,0.00,,,0.00,meteohub,2013-07-24 14:39:00,
2013-07-24 10:44:00,79.9,69.3,29.78,NNE,26,2.0,4.0,70,0.00,,,0.00,meteohub,2013-07-24 14:44:00,
2013-07-24 10:49:00,79.7,69.1,29.78,NE,40,3.0,3.0,70,0.00,,,0.00,meteohub,2013-07-24 14:49:00,
2013-07-24 10:54:00,80.1,69.8,29.78,NNE,29,3.0,3.0,71,0.00,,,0.00,meteohub,2013-07-24 14:54:00,
2013-07-24 10:59:00,80.4,69.3,29.78,NNW,330,2.0,5.0,69,0.00,,,0.00,meteohub,2013-07-24 14:59:00,
2013-07-24 11:04:00,80.2,69.1,29.78,NW,319,1.0,8.0,69,0.00,,,0.00,meteohub,2013-07-24 15:04:00,
2013-07-24 11:09:00,80.2,69.6,29.78,West,267,7.0,8.0,70,0.00,,,0.00,meteohub,2013-07-24 15:09:00,
2013-07-24 11:14:00,80.2,69.1,29.78,NNW,334,2.0,9.0,69,0.00,,,0.00,meteohub,2013-07-24 15:14:00,
2013-07-24 11:19:00,80.2,69.1,29.79,NW,316,2.0,9.0,69,0.00,,,0.00,meteohub,2013-07-24 15:19:00,
2013-07-24 11:24:00,80.1,69.8,29.79,West,268,2.0,9.0,71,0.00,,,0.00,meteohub,2013-07-24 15:24:00,
2013-07-24 11:29:00,80.2,69.6,29.78,WNW,283,4.0,9.0,70,0.00,,,0.00,meteohub,2013-07-24 15:29:00,
2013-07-24 11:34:00,80.1,69.8,29.78,North,5,1.0,9.0,71,0.00,,,0.00,meteohub,2013-07-24 15:34:00,
2013-07-24 11:39:00,79.9,70.0,29.78,West,262,4.0,7.0,72,0.00,,,0.00,meteohub,2013-07-24 15:39:00,
2013-07-24 11:44:00,79.7,69.8,29.79,North,9,1.0,7.0,72,0.00,,,0.00,meteohub,2013-07-24 15:44:00,
2013-07-24 11:49:00,79.7,69.8,29.79,NNE,18,0.0,7.0,72,0.00,,,0.00,meteohub,2013-07-24 15:49:00,
2013-07-24 11:54:00,79.9,70.0,29.79,North,357,0.0,7.0,72,0.00,,,0.00,meteohub,2013-07-24 15:54:00,
2013-07-24 11:59:00,79.7,69.4,29.79,NNE,33,2.0,5.0,71,0.00,,,0.00,meteohub,2013-07-24 15:59:00,
2013-07-24 12:04:00,79.3,69.1,29.79,ENE,61,3.0,6.0,71,0.00,,,0.00,meteohub,2013-07-24 16:04:00,
2013-07-24 12:09:00,79.2,69.3,29.80,NW,315,1.0,6.0,72,0.00,,,0.00,meteohub,2013-07-24 16:09:00,
2013-07-24 12:14:00,79.3,69.1,29.80,WNW,294,3.0,7.0,71,0.00,,,0.00,meteohub,2013-07-24 16:14:00,
2013-07-24 12:19:00,79.3,69.4,29.80,NNW,328,2.0,7.0,72,0.00,,,0.00,meteohub,2013-07-24 16:19:00,
2013-07-24 12:24:00,79.0,69.6,29.80,WNW,284,1.0,7.0,73,0.00,,,0.00,meteohub,2013-07-24 16:24:00,
2013-07-24 12:29:00,78.6,69.6,29.80,NW,309,3.0,7.0,74,0.00,,,0.00,meteohub,2013-07-24 16:29:00,
2013-07-24 12:34:00,78.3,68.9,29.80,WNW,287,4.0,7.0,73,0.00,,,0.00,meteohub,2013-07-24 16:34:00,
2013-07-24 12:40:00,77.9,68.9,29.80,NW,324,2.0,10.0,74,0.00,,,0.00,meteohub,2013-07-24 16:40:00,
2013-07-24 12:45:00,78.1,68.7,29.81,NW,313,3.0,10.0,73,0.00,,,0.00,meteohub,2013-07-24 16:45:00,
2013-07-24 12:50:00,78.1,68.4,29.81,NW,311,1.0,10.0,72,0.00,,,0.00,meteohub,2013-07-24 16:50:00,
2013-07-24 12:55:00,78.3,68.5,29.81,NNE,30,4.0,9.0,72,0.00,,,0.00,meteohub,2013-07-24 16:55:00,
2013-07-24 13:00:00,77.9,68.2,29.81,West,278,4.0,8.0,72,0.00,,,0.00,meteohub,2013-07-24 17:00:00,
2013-07-24 13:05:00,78.1,68.4,29.81,NE,35,3.0,8.0,72,0.00,,,0.00,meteohub,2013-07-24 17:05:00,
2013-07-24 13:10:00,78.4,68.7,29.81,NE,37,2.0,8.0,72,0.00,,,0.00,meteohub,2013-07-24 17:10:00,
2013-07-24 13:15:00,78.3,68.0,29.81,NE,38,1.0,5.0,71,0.00,,,0.00,meteohub,2013-07-24 17:15:00,
2013-07-24 13:20:00,78.4,68.2,29.81,NNW,343,1.0,5.0,71,0.00,,,0.00,meteohub,2013-07-24 17:20:00,
2013-07-24 13:25:00,79.0,68.7,29.81,NNE,18,2.0,5.0,71,0.00,,,0.00,meteohub,2013-07-24 17:25:00,
2013-07-24 13:30:00,79.3,67.8,29.81,WNW,287,5.0,5.0,68,0.00,,,0.00,meteohub,2013-07-24 17:30:00,
2013-07-24 13:31:00,79.3,67.8,29.81,WNW,284,7.0,8.0,68,0.00,,,0.00,meteohub,2013-07-24 17:31:00,
2013-07-24 13:36:00,79.5,67.6,29.81,WNW,290,9.0,9.0,67,0.00,,,0.00,meteohub,2013-07-24 17:36:00,
2013-07-24 13:41:00,79.3,67.8,29.81,NNW,336,1.0,15.0,68,0.00,,,0.00,meteohub,2013-07-24 17:41:00,
2013-07-24 13:46:00,79.3,67.5,29.81,West,280,2.0,15.0,67,0.00,,,0.00,meteohub,2013-07-24 17:46:00,
2013-07-24 13:51:00,79.2,68.2,29.81,NW,304,2.0,15.0,69,0.00,,,0.00,meteohub,2013-07-24 17:51:00,
2013-07-24 13:56:00,79.3,68.7,29.81,NW,321,0.0,8.0,70,0.00,,,0.00,meteohub,2013-07-24 17:56:00,
2013-07-24 14:02:00,79.7,67.3,29.81,North,350,1.0,5.0,66,0.00,,,0.00,meteohub,2013-07-24 18:02:00,
2013-07-24 14:07:00,79.3,67.8,29.81,North,354,2.0,5.0,68,0.00,,,0.00,meteohub,2013-07-24 18:07:00,
2013-07-24 14:12:00,79.2,67.6,29.81,ENE,74,2.0,5.0,68,0.00,,,0.00,meteohub,2013-07-24 18:12:00,
2013-07-24 14:17:00,79.5,68.0,29.81,NE,48,2.0,4.0,68,0.00,,,0.00,meteohub,2013-07-24 18:17:00,
2013-07-24 14:22:00,79.3,67.8,29.82,NNE,27,1.0,4.0,68,0.00,,,0.00,meteohub,2013-07-24 18:22:00,
2013-07-24 14:27:00,79.3,67.5,29.82,WNW,298,1.0,3.0,67,0.00,,,0.00,meteohub,2013-07-24 18:27:00,
2013-07-24 14:32:00,79.9,68.0,29.82,North,1,1.0,4.0,67,0.00,,,0.00,meteohub,2013-07-24 18:32:00,
2013-07-24 14:37:00,79.7,67.3,29.82,NW,320,4.0,5.0,66,0.00,,,0.00,meteohub,2013-07-24 18:37:00,
2013-07-24 14:42:00,79.7,68.2,29.82,NW,312,3.0,5.0,68,0.00,,,0.00,meteohub,2013-07-24 18:42:00,
2013-07-24 14:47:00,79.9,67.1,29.82,WNW,288,3.0,5.0,65,0.00,,,0.00,meteohub,2013-07-24 18:47:00,
2013-07-24 14:52:00,79.5,67.1,29.82,West,277,5.0,9.0,66,0.00,,,0.00,meteohub,2013-07-24 18:52:00,
2013-07-24 14:57:00,79.3,66.0,29.82,NW,319,3.0,11.0,64,0.00,,,0.00,meteohub,2013-07-24 18:57:00,
2013-07-24 15:02:00,79.5,66.7,29.82,WNW,290,2.0,11.0,65,0.00,,,0.00,meteohub,2013-07-24 19:02:00,
2013-07-24 15:07:00,79.9,67.1,29.82,NE,53,2.0,11.0,65,0.00,,,0.00,meteohub,2013-07-24 19:07:00,
2013-07-24 15:12:00,80.2,67.8,29.82,NE,38,2.0,7.0,66,0.00,,,0.00,meteohub,2013-07-24 19:12:00,
2013-07-24 15:17:00,80.2,66.0,29.82,WNW,283,6.0,8.0,62,0.00,,,0.00,meteohub,2013-07-24 19:17:00,
2013-07-24 15:22:00,79.9,66.2,29.83,WNW,290,1.0,8.0,63,0.00,,,0.00,meteohub,2013-07-24 19:22:00,
2013-07-24 15:27:00,79.9,67.1,29.83,WNW,293,3.0,8.0,65,0.00,,,0.00,meteohub,2013-07-24 19:27:00,
2013-07-24 15:32:00,80.1,67.3,29.83,WNW,290,4.0,8.0,65,0.00,,,0.00,meteohub,2013-07-24 19:32:00,
2013-07-24 15:37:00,80.1,67.3,29.82,NW,309,2.0,7.0,65,0.00,,,0.00,meteohub,2013-07-24 19:37:00,
2013-07-24 15:42:00,80.1,67.6,29.82,WNW,295,3.0,8.0,66,0.00,,,0.00,meteohub,2013-07-24 19:42:00,
2013-07-24 15:47:00,80.1,67.3,29.83,NW,321,2.0,8.0,65,0.00,,,0.00,meteohub,2013-07-24 19:47:00,
2013-07-24 15:52:00,79.5,67.1,29.83,NW,323,2.0,8.0,66,0.00,,,0.00,meteohub,2013-07-24 19:52:00,
2013-07-24 15:57:00,79.3,66.0,29.82,WNW,302,2.0,6.0,64,0.00,,,0.00,meteohub,2013-07-24 19:57:00,
2013-07-24 16:02:00,79.3,66.6,29.82,WNW,300,2.0,6.0,65,0.00,,,0.00,meteohub,2013-07-24 20:02:00,
2013-07-24 16:07:00,79.5,65.8,29.82,WNW,298,4.0,6.0,63,0.00,,,0.00,meteohub,2013-07-24 20:07:00,
2013-07-24 16:12:00,79.5,65.8,29.82,NNE,18,0.0,6.0,63,0.00,,,0.00,meteohub,2013-07-24 20:12:00,
2013-07-24 16:17:00,79.9,66.6,29.82,NNW,337,1.0,5.0,64,0.00,,,0.00,meteohub,2013-07-24 20:17:00,
2013-07-24 16:22:00,79.7,66.0,29.83,North,11,0.0,5.0,63,0.00,,,0.00,meteohub,2013-07-24 20:22:00,
2013-07-24 16:27:00,79.3,66.0,29.83,NW,318,1.0,5.0,64,0.00,,,0.00,meteohub,2013-07-24 20:27:00,
2013-07-24 16:32:00,79.2,66.4,29.82,WNW,290,0.0,4.0,65,0.00,,,0.00,meteohub,2013-07-24 20:32:00,
2013-07-24 16:37:00,79.0,66.2,29.83,North,352,0.0,4.0,65,0.00,,,0.00,meteohub,2013-07-24 20:37:00,
2013-07-24 16:42:00,79.0,66.6,29.83,NW,319,1.0,3.0,66,0.00,,,0.00,meteohub,2013-07-24 20:42:00,
2013-07-24 16:47:00,78.8,66.0,29.82,NNW,328,1.0,5.0,65,0.00,,,0.00,meteohub,2013-07-24 20:47:00,
2013-07-24 16:52:00,78.6,66.4,29.82,NNW,328,1.0,5.0,66,0.00,,,0.00,meteohub,2013-07-24 20:52:00,
2013-07-24 16:57:00,78.4,66.2,29.82,NW,318,0.0,5.0,66,0.00,,,0.00,meteohub,2013-07-24 20:57:00,
2013-07-24 16:58:00,78.4,66.2,29.82,NNE,13,1.0,5.0,66,0.00,,,0.00,meteohub,2013-07-24 20:58:00,
2013-07-24 17:03:00,78.6,65.5,29.82,NNW,341,1.0,6.0,64,0.00,,,0.00,meteohub,2013-07-24 21:03:00,
2013-07-24 17:08:00,79.0,65.8,29.83,NNE,29,0.0,6.0,64,0.00,,,0.00,meteohub,2013-07-24 21:08:00,
2013-07-24 17:13:00,79.9,66.2,29.83,NNE,22,1.0,6.0,63,0.00,,,0.00,meteohub,2013-07-24 21:13:00,
2013-07-24 17:18:00,80.1,65.8,29.83,NNW,332,2.0,6.0,62,0.00,,,0.00,meteohub,2013-07-24 21:18:00,
2013-07-24 17:23:00,79.5,65.8,29.83,NNW,347,1.0,6.0,63,0.00,,,0.00,meteohub,2013-07-24 21:23:00,
2013-07-24 17:28:00,79.2,64.9,29.83,WNW,300,3.0,6.0,62,0.00,,,0.00,meteohub,2013-07-24 21:28:00,
2013-07-24 17:33:00,79.2,65.8,29.84,NNE,13,1.0,5.0,64,0.00,,,0.00,meteohub,2013-07-24 21:33:00,
2013-07-24 17:38:00,79.0,65.3,29.84,NW,313,0.0,5.0,63,0.00,,,0.00,meteohub,2013-07-24 21:38:00,
2013-07-24 17:43:00,79.0,65.3,29.83,WNW,300,1.0,5.0,63,0.00,,,0.00,meteohub,2013-07-24 21:43:00,
2013-07-24 17:48:00,78.6,64.9,29.83,NNE,18,1.0,3.0,63,0.00,,,0.00,meteohub,2013-07-24 21:48:00,
2013-07-24 17:53:00,78.4,64.4,29.84,WNW,285,4.0,5.0,62,0.00,,,0.00,meteohub,2013-07-24 21:53:00,
2013-07-24 17:58:00,78.4,65.3,29.84,WNW,300,0.0,5.0,64,0.00,,,0.00,meteohub,2013-07-24 21:58:00,
2013-07-24 18:03:00,78.6,64.9,29.84,NW,323,1.0,5.0,63,0.00,,,0.00,meteohub,2013-07-24 22:03:00,
2013-07-24 18:08:00,79.0,65.3,29.84,WNW,291,1.0,4.0,63,0.00,,,0.00,meteohub,2013-07-24 22:08:00,
2013-07-24 18:13:00,79.0,64.8,29.84,NNW,328,1.0,4.0,62,0.00,,,0.00,meteohub,2013-07-24 22:13:00,
2013-07-24 18:18:00,78.6,63.5,29.84,NW,315,2.0,5.0,60,0.00,,,0.00,meteohub,2013-07-24 22:18:00,
2013-07-24 18:23:00,78.8,63.7,29.84,NNW,332,0.0,6.0,60,0.00,,,0.00,meteohub,2013-07-24 22:23:00,
2013-07-24 18:28:00,79.2,64.0,29.84,NW,309,1.0,6.0,60,0.00,,,0.00,meteohub,2013-07-24 22:28:00,
2013-07-24 18:33:00,79.0,64.4,29.85,NNW,338,0.0,6.0,61,0.00,,,0.00,meteohub,2013-07-24 22:33:00,
2013-07-24 18:38:00,79.0,64.4,29.85,NW,305,0.0,6.0,61,0.00,,,0.00,meteohub,2013-07-24 22:38:00,
2013-07-24 18:43:00,78.4,63.9,29.85,NNE,23,1.0,6.0,61,0.00,,,0.00,meteohub,2013-07-24 22:43:00,
2013-07-24 18:48:00,78.1,63.5,29.86,NE,46,2.0,6.0,61,0.00,,,0.00,meteohub,2013-07-24 22:48:00,
2013-07-24 18:53:00,78.1,63.5,29.86,WNW,292,3.0,3.0,61,0.00,,,0.00,meteohub,2013-07-24 22:53:00,
2013-07-24 18:58:00,79.0,63.5,29.86,WNW,292,4.0,4.0,59,0.00,,,0.00,meteohub,2013-07-24 22:58:00,
2013-07-24 19:03:00,79.3,62.8,29.86,NW,315,3.0,4.0,57,0.00,,,0.00,meteohub,2013-07-24 23:03:00,
2013-07-24 19:08:00,79.5,63.0,29.86,NNE,20,3.0,6.0,57,0.00,,,0.00,meteohub,2013-07-24 23:08:00,
2013-07-24 19:13:00,79.5,63.0,29.87,North,0,1.0,6.0,57,0.00,,,0.00,meteohub,2013-07-24 23:13:00,
2013-07-24 19:18:00,79.5,62.4,29.87,NNW,335,1.0,6.0,56,0.00,,,0.00,meteohub,2013-07-24 23:18:00,
2013-07-24 19:23:00,79.3,62.2,29.87,NNE,30,1.0,5.0,56,0.00,,,0.00,meteohub,2013-07-24 23:23:00,
2013-07-24 19:28:00,79.2,62.1,29.88,WNW,294,2.0,5.0,56,0.00,,,0.00,meteohub,2013-07-24 23:28:00,
2013-07-24 19:33:00,79.2,62.6,29.88,NNE,23,1.0,4.0,57,0.00,,,0.00,meteohub,2013-07-24 23:33:00,
2013-07-24 19:38:00,79.2,62.6,29.88,NNW,339,0.0,4.0,57,0.00,,,0.00,meteohub,2013-07-24 23:38:00,
2013-07-24 19:43:00,79.0,62.4,29.88,NE,41,0.0,2.0,57,0.00,,,0.00,meteohub,2013-07-24 23:43:00,
2013-07-24 19:48:00,78.3,61.3,29.89,NNE,23,2.0,5.0,56,0.00,,,0.00,meteohub,2013-07-24 23:48:00,
2013-07-24 19:53:00,77.7,60.8,29.89,NNE,33,2.0,5.0,56,0.00,,,0.00,meteohub,2013-07-24 23:53:00,
2013-07-24 19:58:00,77.5,60.6,29.89,NE,34,1.0,5.0,56,0.00,,,0.00,meteohub,2013-07-24 23:58:00,
2013-07-24 20:03:00,77.2,60.8,29.89,NNE,16,1.0,5.0,57,0.00,,,0.00,meteohub,2013-07-25 00:03:00,
2013-07-24 20:08:00,76.5,60.6,29.89,West,271,0.0,3.0,58,0.00,,,0.00,meteohub,2013-07-25 00:08:00,
2013-07-24 20:13:00,75.9,60.6,29.90,WNW,288,0.0,2.0,59,0.00,,,0.00,meteohub,2013-07-25 00:13:00,
2013-07-24 20:18:00,75.6,60.6,29.90,WNW,290,0.0,2.0,60,0.00,,,0.00,meteohub,2013-07-25 00:18:00,
2013-07-24 20:23:00,75.0,60.6,29.90,North,354,1.0,1.0,61,0.00,,,0.00,meteohub,2013-07-25 00:23:00,
2013-07-24 20:28:00,74.7,59.9,29.90,NNE,13,0.0,2.0,60,0.00,,,0.00,meteohub,2013-07-25 00:28:00,
2013-07-24 20:33:00,74.5,59.7,29.90,NE,41,2.0,2.0,60,0.00,,,0.00,meteohub,2013-07-25 00:33:00,
2013-07-24 20:38:00,74.1,59.4,29.90,NNE,22,1.0,3.0,60,0.00,,,0.00,meteohub,2013-07-25 00:38:00,
2013-07-24 20:43:00,73.9,58.6,29.90,NNE,19,2.0,3.0,59,0.00,,,0.00,meteohub,2013-07-25 00:43:00,
2013-07-24 20:48:00,73.9,59.2,29.91,NE,35,1.0,5.0,60,0.00,,,0.00,meteohub,2013-07-25 00:48:00,
2013-07-24 20:53:00,73.8,59.0,29.91,NW,316,1.0,5.0,60,0.00,,,0.00,meteohub,2013-07-25 00:53:00,
2013-07-24 20:58:00,73.6,58.3,29.91,NNW,345,0.0,5.0,59,0.00,,,0.00,meteohub,2013-07-25 00:58:00,
2013-07-24 21:03:00,73.6,58.8,29.92,West,278,2.0,5.0,60,0.00,,,0.00,meteohub,2013-07-25 01:03:00,
2013-07-24 21:09:00,73.2,59.0,29.92,West,270,0.0,5.0,61,0.00,,,0.00,meteohub,2013-07-25 01:09:00,
2013-07-24 21:14:00,73.0,59.2,29.92,West,270,0.0,5.0,62,0.00,,,0.00,meteohub,2013-07-25 01:14:00,
2013-07-24 21:19:00,72.7,59.4,29.93,NE,46,3.0,4.0,63,0.00,,,0.00,meteohub,2013-07-25 01:19:00,
2013-07-24 21:24:00,72.3,59.0,29.93,NE,51,0.0,3.0,63,0.00,,,0.00,meteohub,2013-07-25 01:24:00,
2013-07-24 21:29:00,72.0,58.3,29.93,NNE,33,0.0,3.0,62,0.00,,,0.00,meteohub,2013-07-25 01:29:00,
2013-07-24 21:34:00,72.0,58.3,29.93,West,259,1.0,3.0,62,0.00,,,0.00,meteohub,2013-07-25 01:34:00,
2013-07-24 21:39:00,71.8,58.1,29.93,NNE,20,3.0,3.0,62,0.00,,,0.00,meteohub,2013-07-25 01:39:00,
2013-07-24 21:44:00,71.6,58.3,29.93,NW,314,0.0,3.0,63,0.00,,,0.00,meteohub,2013-07-25 01:44:00,
2013-07-24 21:49:00,71.4,58.1,29.94,NNE,30,2.0,3.0,63,0.00,,,0.00,meteohub,2013-07-25 01:49:00,
2013-07-24 21:54:00,71.2,57.9,29.94,NW,304,1.0,6.0,63,0.00,,,0.00,meteohub,2013-07-25 01:54:00,
2013-07-24 21:59:00,71.1,58.3,29.94,NNE,23,1.0,6.0,64,0.00,,,0.00,meteohub,2013-07-25 01:59:00,
2013-07-24 22:04:00,71.1,58.3,29.95,WNW,284,1.0,6.0,64,0.00,,,0.00,meteohub,2013-07-25 02:04:00,
2013-07-24 22:09:00,70.9,58.5,29.95,NNE,16,2.0,5.0,65,0.00,,,0.00,meteohub,2013-07-25 02:09:00,
2013-07-24 22:14:00,70.5,57.7,29.95,North,10,2.0,4.0,64,0.00,,,0.00,meteohub,2013-07-25 02:14:00,
2013-07-24 22:19:00,70.5,58.1,29.95,NE,34,2.0,3.0,65,0.00,,,0.00,meteohub,2013-07-25 02:19:00,
2013-07-24 22:24:00,70.3,58.1,29.96,North,349,1.0,4.0,65,0.00,,,0.00,meteohub,2013-07-25 02:24:00,
2013-07-24 22:29:00,70.2,58.3,29.96,NW,316,2.0,4.0,66,0.00,,,0.00,meteohub,2013-07-25 02:29:00,
2013-07-24 22:34:00,70.0,58.1,29.96,NNE,30,4.0,4.0,66,0.00,,,0.00,meteohub,2013-07-25 02:34:00,
2013-07-24 22:39:00,69.8,57.9,29.96,NNE,22,0.0,5.0,66,0.00,,,0.00,meteohub,2013-07-25 02:39:00,
2013-07-24 22:44:00,69.6,57.7,29.96,NE,53,4.0,5.0,66,0.00,,,0.00,meteohub,2013-07-25 02:44:00,
2013-07-24 22:49:00,69.4,57.6,29.96,NNE,16,1.0,5.0,66,0.00,,,0.00,meteohub,2013-07-25 02:49:00,
2013-07-24 22:54:00,69.3,57.9,29.96,NNW,343,1.0,5.0,67,0.00,,,0.00,meteohub,2013-07-25 02:54:00,
2013-07-24 22:59:00,69.1,57.7,29.96,North,6,2.0,5.0,67,0.00,,,0.00,meteohub,2013-07-25 02:59:00,
2013-07-24 23:04:00,68.9,57.6,29.96,North,0,0.0,5.0,67,0.00,,,0.00,meteohub,2013-07-25 03:04:00,
2013-07-24 23:10:00,68.7,57.7,29.96,NNE,14,2.0,3.0,68,0.00,,,0.00,meteohub,2013-07-25 03:10:00,
2013-07-24 23:15:00,68.5,57.6,29.96,NNE,29,2.0,3.0,68,0.00,,,0.00,meteohub,2013-07-25 03:15:00,
2013-07-24 23:20:00,68.4,57.4,29.96,WNW,296,2.0,3.0,68,0.00,,,0.00,meteohub,2013-07-25 03:20:00,
2013-07-24 23:25:00,68.4,57.4,29.96,ENE,63,2.0,5.0,68,0.00,,,0.00,meteohub,2013-07-25 03:25:00,
2013-07-24 23:30:00,68.2,57.2,29.97,North,4,1.0,7.0,68,0.00,,,0.00,meteohub,2013-07-25 03:30:00,
2013-07-24 23:35:00,68.2,57.2,29.97,NE,39,2.0,7.0,68,0.00,,,0.00,meteohub,2013-07-25 03:35:00,
2013-07-24 23:40:00,67.8,56.8,29.97,North,349,0.0,6.0,68,0.00,,,0.00,meteohub,2013-07-25 03:40:00,
2013-07-24 23:45:00,67.8,56.8,29.97,NNE,26,1.0,6.0,68,0.00,,,0.00,meteohub,2013-07-25 03:45:00,
2013-07-24 23:50:00,67.6,56.7,29.98,NNE,29,2.0,5.0,68,0.00,,,0.00,meteohub,2013-07-25 03:50:00,
2013-07-24 23:56:00,67.6,56.7,29.98,NNE,12,1.0,5.0,68,0.00,,,0.00,meteohub,2013-07-25 03:56:00,